Regional Weather Roundup
Issued by NWS

Home | Current Version | Previous Version | Text Only | Print | Product List | Glossary On
Versions: 1 2 3 4 5 6 7 8 9 10 11 12 13 14 15 16 17 18 19 20 21 22 23 24 25 26 27 28 29 30 31 32 33 34 35 36 37 38 39 40 41 42 43 44 45 46 47 48 49 50
000
ASUS43 KLOT 031208
RWRIL

ILLINOIS REGIONAL WEATHER ROUNDUP
NATIONAL WEATHER SERVICE CHICAGO/ROMEOVILLE IL
700 AM CDT TUE MAY 03 2016

NOTE: "FAIR" INDICATES FEW OR NO CLOUDS BELOW 12,000 FEET WITH NO
SIGNIFICANT WEATHER AND/OR OBSTRUCTIONS TO VISIBILITY.

* THESE STATIONS ARE NOT UNDER NWS QUALITY CONTROL. THEY ALSO MAY NOT
  REPORT WEATHER SUCH AS PRECIPITATION OR FOG.

ILZ001-002-007-009-015-016-024-031300-
NORTHWEST ILLINOIS

CITY           SKY/WX    TMP DP  RH WIND       PRES   REMARKS
MOLINE         SUNNY     41  38  89 CALM      30.01S
6HR MIN TEMP:  39; 6HR MAX TEMP:  45;

STERLING*      PTSUNNY   46  43  87 SW5       30.01R
SAVANNA*       MOSUNNY   40  39  99 CALM      30.00S FOG
$$

ILZ003-004-008-010-011-017-018-031300-
NORTH CENTRAL ILLINOIS

CITY           SKY/WX    TMP DP  RH WIND       PRES   REMARKS
ROCKFORD       MOSUNNY   42  39  89 CALM      30.00S
6HR MIN TEMP:  38; 6HR MAX TEMP:  42;

FREEPORT*      MOSUNNY   44  39  81 W5        30.00S
ROCHELLE*      CLOUDY    40  38  93 CALM      30.00S
DE KALB*       PTSUNNY   47  37  66 W9        29.99S
$$

ILZ005-006-012>014-019>023-031300-
NORTHEAST ILLINOIS

CITY           SKY/WX    TMP DP  RH WIND       PRES   REMARKS
CHICAGO-OHARE  CLOUDY    47  37  68 W5        29.97R
6HR MIN TEMP:  40; 6HR MAX TEMP:  47;

CHICAGO-MIDWAY MOSUNNY   46  36  68 CALM      29.98R
6HR MIN TEMP:  42; 6HR MAX TEMP:  46;

AURORA         MOSUNNY   40  37  89 CALM      29.99R
6HR MIN TEMP:  36; 6HR MAX TEMP:  40;

LANSING*       SUNNY     39  38  95 CALM      29.99R
JOLIET*        SUNNY     40  39  98 CALM      29.99S
WAUKEGAN       PTSUNNY   46  37  71 VRB3      29.96S
6HR MIN TEMP:  37; 6HR MAX TEMP:  46;

DUPAGE AIRPORT PTSUNNY   39  35  86 CALM      29.98R
6HR MIN TEMP:  36; 6HR MAX TEMP:  41;

KANKAKEE*      MOSUNNY   47  39  72 W8        30.00R
WHEELING       CLOUDY    41  37  86 CALM      29.99R
6HR MIN TEMP:  37; 6HR MAX TEMP:  41;

MORRIS*        SUNNY     44  37  77 W3        29.99R
ROMEOVILLE*    SUNNY     42  37  83 NW5       29.99S
NORTHERLY ISL    N/A     51  35  54 NW3         N/A
NORTHERLY ISL    N/A     51  35  54 NW3         N/A
$$

LMZ740>746-031300-
SOUTHERN LAKE MICHIGAN

STATION/POSITION SKY/WX   TEMP    WIND        PRES    VSBY  WAVE
                          AIR SEA DIR/SP/G                  HT/PER
                          (F)     (DEG/KT/KT) (MB)    (MI)  (FT/S)
SOUTHERN BUOY              42 41  190/  4/  6 1014.7R         0
HARRISON CRIB              49     300/  5/  5   N/A
BURNHAM HARBOR             53     290/  5       N/A
CALUMET HARBOR             44     240/  2/  3 1014.5R
BURNS HARBOR               47     310/  5/  5 1015.6S
MICHIGAN CITY              48     310/  2/  2   N/A
ST. JOSEPH                 45 48                N/A           1/ 4
$$

ILZ025>027-034>036-040-047-049-050-058-095>099-031300-
WEST-CENTRAL ILLINOIS

CITY           SKY/WX    TMP DP  RH WIND       PRES   REMARKS
QUINCY         CLOUDY    48  46  93 NW5       30.03R
GALESBURG*     PTSUNNY   42  42  99 W3        30.02S
MACOMB*        PTSUNNY   46  44  93 NW3       30.05R
JACKSONVILLE*  SUNNY     49  47  92 W3        30.03R
PITTSFIELD*    CLOUDY    49  47  94 NW3       30.04R
$$

ILZ028>032-037-038-041>044-048-051>054-059>061-031300-
CENTRAL ILLINOIS

CITY           SKY/WX    TMP DP  RH WIND       PRES   REMARKS
PONTIAC        MOSUNNY   45  42  89 NW7       30.01R
BLOOMINGTON    SUNNY     44  44 100 W7        30.01S
DECATUR        MOSUNNY   49  42  77 NW9       30.00S
PEORIA         MOSUNNY   45  42  89 NW3       30.02R
6HR MIN TEMP:  41; 6HR MAX TEMP:  48;

LACON*         SUNNY     43  42  97 CALM      30.01R
LINCOLN*       SUNNY     45  43  93 CALM      30.01S
SPRINGFIELD    SUNNY     48  46  93 NW5       30.02R FOG
6HR MIN TEMP:  46; 6HR MAX TEMP:  52;

TAYLORVILLE    SUNNY     48  47  98 NW5       30.01R
6HR MIN TEMP:  46; 6HR MAX TEMP:  51;

$$

ILZ033-039-045-046-055>057-062-063-031300-
EAST-CENTRAL ILLINOIS

CITY           SKY/WX    TMP DP  RH WIND       PRES   REMARKS
CHAMPAIGN      PTSUNNY   45  41  86 NW6       29.99R
RANTOUL*       MOSUNNY   47  42  80 NW8       29.99S
MATTOON        MOSUNNY   46  42  86 NW9       29.98R
PARIS*         CLOUDY    46  45  96 NW7       29.99R
$$

ILZ079-100>102-031300-
SOUTHWEST ILLINOIS

CITY           SKY/WX    TMP DP  RH WIND       PRES   REMARKS
ALTON          CLOUDY    49  48  96 W5        30.03R
BELLEVILLE     SUNNY     52  52  99 NW8       30.01R
CAHOKIA*       PTSUNNY   53  48  83 NW8       30.02R
SPARTA*        CLOUDY    52  50  92 NW5       30.02S
$$

ILZ064>066-069>071-074>076-080>082-084>086-088>090-092>094-031300-
SOUTH-CENTRAL ILLINOIS

CITY           SKY/WX    TMP DP  RH WIND       PRES   REMARKS
CARBONDALE     CLOUDY    52  49  89 NW6       30.01R
6HR MIN TEMP:  48; 6HR MAX TEMP:  53;

CAIRO*         CLOUDY    53  50  90 NW3       30.01R
EFFINGHAM*     SUNNY     49  49  99 NW3       30.01R FOG
MARION         CLOUDY    52  50  93 NW6       30.01S
MT. VERNON     CLOUDY    52  46  82 CALM      30.01R
CENTRALIA*     CLOUDY    53  51  94 NW3       30.00R
SALEM*         CLOUDY    53  49  88 NW5       30.00S
METROPOLIS*    CLOUDY    53  52  97 NW5       30.01R
$$

ILZ067-068-072-073-078-083-087-091-031300-
SOUTHEAST ILLINOIS

CITY           SKY/WX    TMP DP  RH WIND       PRES   REMARKS
LAWRENCEVILLE  SUNNY     50  48  93 NW7       29.98R FOG
FLORA*         SUNNY     51  49  93 NW6       30.00R
FAIRFIELD*     SUNNY     51  48  91 CALM      29.99R
HARRISBURG*    MOSUNNY   50  50  98 NW6       30.00R FOG
ROBINSON*      MOSUNNY   47  46  97 NW6       29.99R FOG
CARMI*         SUNNY     50  49  97 NW5       29.99R FOG
$$

ABBREVIATIONS USED IN REMARKS
   TC - TEMPERATURE IN CELSIUS
  WCI - WIND CHILL INDEX
   HX - HEAT INDEX
  VSB - VISIBILITY
$$





USA.gov is the U.S. government's official web portal to all federal, state and local government web resources and services.